Regional Weather Roundup
Issued by NWS

Home | Current Version | Previous Version | Text Only | Print | Product List | Glossary Off
Versions: 1 2 3 4 5 6 7 8 9 10 11 12 13 14 15 16 17 18 19 20 21 22 23 24 25 26 27 28 29 30 31 32 33 34 35 36 37 38 39 40 41 42 43 44 45 46 47 48 49 50

000
ASUS45 KTFX 290810
RWRMT
MONTANA REGIONAL WEATHER ROUNDUP
NATIONAL WEATHER SERVICE GREAT FALLS MT
200 AM MDT WED JUL 29 2015

NOTE: "FAIR" INDICATES FEW OR NO CLOUDS BELOW 12000 FEET WITH NO
SIGNIFICANT WEATHER AND/OR OBSTRUCTIONS TO VISIBILITY.

MTZ001>007-043-290900-
WEST OF THE DIVIDE

CITY           SKY/WX    TMP DP  RH WIND       PRES   REMARKS
KALISPELL      MOSUNNY   48  42  80 CALM      30.21S
MISSOULA       CLEAR     53  44  71 CALM      30.27S
BUTTE          CLEAR     41  36  82 SE5       30.34S
MULLAN PASS    CLEAR     53  32  44 SW6       30.35S
DEER LODGE       N/A     45  37  76 W6        30.35S
EUREKA           N/A     54  43  66 CALM      30.21R
HAMILTON         N/A     50  41  71 S8        30.28S
LIBBY            N/A     48  43  81 CALM      30.23S
PLAINS           N/A     51  41  69 CALM      30.23R
RONAN            N/A     53  45  74 CALM      30.26S
$$

MTZ008-052>055-290900-
SOUTHWEST MONTANA

CITY           SKY/WX    TMP DP  RH WIND       PRES   REMARKS
BOZEMAN        CLEAR     48  41  76 SE12      30.29S
DILLON         CLEAR     42  38  85 SW6       30.32S
W YELLOWSTONE  CLEAR     32  32 100 CALM      30.41S
TWIN BRIDGES     N/A     44  37  76 S1        30.27S
$$

MTZ009-010-012-014-046-048-049-054-290900-
EAST SLOPES AND CENTRAL MONTANA

CITY           SKY/WX    TMP DP  RH WIND       PRES   REMARKS
CUT BANK       CLEAR     51  41  68 W12       30.17S
GREAT FALLS    CLEAR     53  39  59 SW9       30.19S
MALMSTROM AFB  CLEAR     51  41  68 SW12      30.19S
HELENA         CLEAR     60  37  42 SW6       30.24R
CONRAD           N/A     49  45  86 SW3       30.18S
$$

MTZ011-013-016-021-045-047-050-051-290900-
NORTH CENTRAL MONTANA

CITY           SKY/WX    TMP DP  RH WIND       PRES   REMARKS
HAVRE          CLEAR     53  47  79 SW7       30.09S
LEWISTOWN      PTCLDY    52  39  61 CALM      30.21R
CHINOOK          N/A     54  48  82 W6        30.08S
FORT BENTON      N/A     55  43  62 S6        30.16R
$$

MTZ017>020-022>027-061-062-290900-
NORTHEAST MONTANA

CITY           SKY/WX    TMP DP  RH WIND       PRES   REMARKS
GLASGOW        PTCLDY    54  48  80 SW8       30.02R
JORDAN           N/A     54  46  74 W7        30.08S
SIDNEY         PTCLDY    63  46  55 W14       29.96S
WOLF POINT     MOCLDY    57  50  77 W10       30.00R
MALTA            N/A     53  46  77 CALM      30.02
PLENTYWOOD       N/A     57  52  82 W14       29.92
POPLAR           N/A     57  52  82 SW10      29.99R
SCOBEY           N/A     55  46  71 W6        29.96R
$$

MTZ028>42-056>058-290900-
SOUTHCENTRAL AND SOUTHEAST MONTANA

CITY           SKY/WX    TMP DP  RH WIND       PRES   REMARKS
BAKER          PTCLDY    56  39  53 W12       30.09R
BILLINGS       PTCLDY    57  37  47 SW12      30.22R
LIVINGSTON     CLEAR     58  35  42 SW16      30.27R
MILES CITY     PTCLDY    58  41  53 W12       30.10R
FORSYTH          N/A     61  43  51 SW6       30.12R
LAUREL           N/A     50  34  54 SW5       30.19S
ROUNDUP          N/A     53  40  61 CALM      30.09S
$$

REGIONAL REPORTS...DAKOTAS

CITY           SKY/WX    TMP DP  RH WIND       PRES   REMARKS
WILLISTON      MOCLDY    59  51  75 W16       29.92R
MINOT          LGT RAIN  64  50  60 W28G38    29.76R
DICKINSON      CLEAR     56  45  66 W13       29.98R
BEACH          FAIR      57  45  62 W15G21    30.04R
CROSBY         CLOUDY    59  55  88 W16       29.86R
BISMARCK       PTCLDY    61  48  62 W20G29    29.90S
GRAND FORKS    CLOUDY    65  53  65 W26G36    29.56S
FARGO          CLOUDY    66  51  58 W22G29    29.73S
BUFFALO SD       N/A     52  38  58 W13       30.05S
RAPID CITY     CLEAR     52  42  69 NW7       30.20S
$$

REGIONAL REPORTS...WYOMING/IDAHO/WASHINGTON

CITY           SKY/WX    TMP DP  RH WIND       PRES   REMARKS
GILLETTE       CLEAR     52  36  54 SW9       30.25S
SHERIDAN       CLEAR     55  34  45 W12       30.25R
BUFFALO WY     CLEAR     50  34  54 SW7       30.30R
CODY           CLEAR     55  34  44 SW7       30.32R
YELLOWSTONE LA   N/A     30  27  88 NW3       30.47S
IDAHO FALLS    CLEAR     45  39  79 N6        30.32S
SALMON         CLEAR     46  43  87 CALM      30.30R
BOISE          CLEAR     62  37  39 SE6       30.20S
SPOKANE        PTCLDY    63  37  38 SE5       30.20R
$$

REGIONAL REPORTS...ALBERTA

CITY           SKY/WX    TMP DP  RH WIND       PRES   REMARKS
EDMONTON       CLEAR     57  45  62 W9        30.00R
CALGARY        PTCLDY    61  39  44 W13       30.12S
LETHBRIDGE     CLEAR     54  43  66 W10       30.12S
MEDICINE HAT   CLEAR     54  48  82 SW8       30.06R
WATERTON GATE    N/A     57  41  54 SW14G20     N/A
MILK RIVER       N/A     50  43  76 W12         N/A
ONEFOUR          N/A     55  45  67 NW15        N/A
$$

REGIONAL REPORTS...SASKATCHEWAN

CITY           SKY/WX    TMP DP  RH WIND       PRES   REMARKS
SWIFT CURRENT  CLEAR     54  48  82 W12       29.98S
REGINA         PTCLDY    57  52  82 W17G24    29.83R
SASKATOON      MOCLDY    57  52  82 W10       29.85R
CYPRESS HILLS    N/A     52  41  66 W3          N/A
VAL MARIE        N/A     52  46  82 NW8         N/A
ROCKGLEN         N/A     55  46  71 W12G18      N/A
ASSINIBOIA       N/A     55  50  82 W8          N/A
$$



USA.gov is the U.S. government's official web portal to all federal, state and local government web resources and services.